Home   Weather   Haarlem   Past weeks
Flag for Netherlands

Past Weather in Haarlem, Netherlands — Yesterday and Last 2 Weeks

Now
68 °F

Passing clouds.


Feels Like: 68 °F
Forecast: 65 / 61 °F
Wind: 15 mph from West

Location: Amsterdam Schiphol Airport

Current Time: Aug 17, 2019 at 7:10:05 pm

Latest Report: Aug 17, 2019 at 6:25 pm


Visibility: N/A

Pressure: 29.68 "Hg

Humidity: 69%

Dew Point: 57 °F

Location of HaarlemLocation

Past Weather in Haarlem — Graph

°F

Haarlem Temperature Yesterday

Maximum temperature yesterday: 70 °F (at 12:55 pm)
Minimum temperature yesterday: 52 °F (at 4:55 am)
Average temperature yesterday: 63 °F

High & Low Weather Summary for the Past Weeks

 TemperatureHumidityPressure
High75 °F (Aug 4, 2:55 pm)100% (Aug 4, 12:55 am)30.09 "Hg (Aug 4, 12:55 am)
Low52 °F (Aug 13, 5:25 am)50% (Aug 8, 3:55 pm)29.59 "Hg (Aug 9, 8:25 pm)
Average65 °F77%29.86 "Hg
* Reported Aug 2 5:25 pm — Aug 17 5:55 pm, Haarlem. Weather by CustomWeather, © 2019

Note: Actual official high and low records may vary slightly from our data, if they occured in-between our weather recording intervals... More about our weather records

Advertising

Haarlem Weather History for the Previous 24 Hours

Scroll right to see more
 ConditionsComfort  
Time TempWeatherWind HumidityBarometerVisibility
5:55 pm
Sat, Aug 17
68 °FPassing clouds.16 mph73%29.68 "HgN/A
5:25 pm68 °FScattered clouds.15 mph78%29.68 "HgN/A
4:55 pm68 °FPassing clouds.14 mph78%29.68 "HgN/A
4:25 pm68 °FPassing clouds.13 mph83%29.68 "HgN/A
3:55 pm68 °FScattered clouds.14 mph88%29.68 "HgN/A
3:25 pm68 °FScattered clouds.14 mph88%29.68 "HgN/A
2:55 pm70 °FLight rain. Broken clouds.15 mph73%29.68 "HgN/A
2:25 pm70 °FScattered clouds.16 mph78%29.68 "HgN/A
1:55 pm70 °FScattered clouds.17 mph78%29.68 "HgN/A
1:25 pm70 °FBroken clouds.17 mph78%29.68 "HgN/A
12:55 pm70 °FScattered clouds.17 mph78%29.68 "HgN/A
12:25 pm70 °FScattered clouds.17 mph83%29.68 "HgN/A
11:55 am68 °FBroken clouds.18 mph83%29.68 "HgN/A
11:25 am66 °FDrizzle. Partly sunny.17 mph88%29.68 "HgN/A
10:55 am66 °FPartly sunny.17 mph88%29.68 "HgN/A
10:25 am66 °FBroken clouds.15 mph88%29.68 "HgN/A
9:55 am64 °FDrizzle. Partly sunny.16 mph94%29.68 "Hg3 mi
9:25 am63 °FDrizzle. Partly sunny.16 mph100%29.68 "Hg4 mi
8:55 am63 °FDrizzle. Partly sunny.17 mph94%29.68 "Hg5 mi
7:55 am63 °FBroken clouds.18 mph94%29.68 "HgN/A
7:25 am63 °FDrizzle. Broken clouds.17 mph94%29.65 "Hg4 mi
6:55 am63 °FBroken clouds.14 mph94%29.65 "HgN/A
6:25 am61 °FPassing clouds.15 mph100%29.68 "Hg6 mi
5:55 am61 °FPassing clouds.17 mph94%29.68 "Hg6 mi
5:25 am61 °FRain. Partly cloudy.15 mph94%29.68 "Hg4 mi
4:55 am63 °FLight rain. Partly cloudy.14 mph88%29.68 "Hg6 mi
4:25 am63 °FLight rain. Partly cloudy.15 mph88%29.68 "HgN/A
3:55 am63 °FPassing clouds.13 mph88%29.68 "HgN/A
3:25 am63 °FPassing clouds.13 mph88%29.71 "HgN/A
2:55 am63 °FPassing clouds.12 mph88%29.71 "HgN/A
2:25 am63 °FPassing clouds.13 mph88%29.71 "HgN/A
1:55 am63 °FPassing clouds.12 mph88%29.74 "HgN/A
1:25 am63 °FLight rain. Passing clouds.14 mph88%29.74 "HgN/A
12:55 am63 °FLight rain. Passing clouds.13 mph88%29.77 "HgN/A
12:25 am63 °FLight rain. Passing clouds.12 mph88%29.77 "HgN/A
11:55 pm
Fri, Aug 16
63 °FLight rain. Passing clouds.8 mph88%29.77 "HgN/A
11:25 pm63 °FLight rain. Passing clouds.6 mph94%29.80 "HgN/A
10:55 pm63 °FLight rain. Clear.8 mph88%29.80 "HgN/A
10:25 pm64 °FLight rain. Passing clouds.12 mph83%29.80 "HgN/A
9:55 pm64 °FLight rain. Passing clouds.9 mph83%29.80 "HgN/A
9:25 pm64 °FLight rain. Passing clouds.9 mph83%29.83 "HgN/A
8:55 pm64 °FLight rain. Passing clouds.9 mph83%29.83 "HgN/A
7:55 pm68 °FLight rain. Passing clouds.10 mph69%29.83 "HgN/A
7:25 pm68 °FLight rain. Passing clouds.12 mph64%29.86 "HgN/A
Weather by CustomWeather, © 2019

See weather overview